TimeCST,TemperatureF,Dew PointF,Humidity,Sea Level PressureIn,VisibilityMPH,Wind Direction,Wind SpeedMPH,Gust SpeedMPH,PrecipitationIn,Events,Conditions,WindDirDegrees,DateUTC
12:55 AM,26.1,23.0,88,30.41,10.0,West,8.1,-,N/A,,Clear,270,2011-11-17 06:55:00
1:55 AM,24.1,21.0,88,30.40,10.0,West,6.9,-,N/A,,Clear,260,2011-11-17 07:55:00
2:55 AM,25.0,21.0,85,30.40,10.0,WSW,9.2,-,N/A,,Clear,250,2011-11-17 08:55:00
3:55 AM,24.8,19.4,80,30.34,10.0,WSW,8.1,-,N/A,,Clear,250,2011-11-17 09:55:00
4:55 AM,23.0,19.0,85,30.38,10.0,WSW,9.2,-,N/A,,Clear,250,2011-11-17 10:55:00
5:55 AM,23.0,19.0,85,30.37,10.0,WSW,9.2,-,N/A,,Clear,240,2011-11-17 11:55:00
6:55 AM,23.0,18.0,81,30.36,10.0,SW,8.1,-,N/A,,Clear,220,2011-11-17 12:55:00
7:55 AM,25.0,19.9,81,30.35,10.0,SW,8.1,-,N/A,,Clear,220,2011-11-17 13:55:00
8:55 AM,30.2,24.8,80,30.30,10.0,SW,11.5,-,N/A,,Clear,220,2011-11-17 14:55:00
9:55 AM,33.1,27.0,78,30.33,10.0,SSW,12.7,-,N/A,,Clear,210,2011-11-17 15:55:00
10:55 AM,37.9,28.9,70,30.29,10.0,SW,16.1,-,N/A,,Clear,220,2011-11-17 16:55:00
11:55 AM,42.1,28.9,60,30.25,10.0,South,16.1,-,N/A,,Clear,190,2011-11-17 17:55:00
12:55 PM,46.9,23.0,39,30.19,10.0,SSW,18.4,31.1,N/A,,Clear,210,2011-11-17 18:55:00
1:55 PM,50.0,21.2,32,30.12,10.0,SSW,23.0,31.1,N/A,,Clear,200,2011-11-17 19:55:00
2:55 PM,50.0,19.9,31,30.12,10.0,South,20.7,29.9,N/A,,Clear,190,2011-11-17 20:55:00
3:55 PM,48.9,21.0,33,30.09,10.0,South,18.4,27.6,N/A,,Clear,190,2011-11-17 21:55:00
4:55 PM,46.9,21.0,36,30.08,10.0,South,16.1,-,N/A,,Clear,190,2011-11-17 22:55:00
5:55 PM,42.1,23.0,47,30.06,10.0,South,13.8,-,N/A,,Clear,170,2011-11-17 23:55:00
6:55 PM,41.0,24.1,51,30.05,10.0,South,17.3,24.2,N/A,,Clear,170,2011-11-18 00:55:00
7:55 PM,41.0,25.0,53,30.02,10.0,South,20.7,28.8,N/A,,Clear,170,2011-11-18 01:55:00
8:55 PM,39.9,25.0,55,29.98,10.0,South,23.0,33.4,N/A,,Clear,190,2011-11-18 02:55:00
9:55 PM,39.9,25.0,55,29.95,10.0,South,23.0,34.5,N/A,,Clear,190,2011-11-18 03:55:00
10:55 PM,39.0,25.0,57,29.93,10.0,South,19.6,29.9,N/A,,Clear,190,2011-11-18 04:55:00
11:55 PM,39.0,25.0,57,29.90,10.0,South,19.6,29.9,N/A,,Clear,190,2011-11-18 05:55:00